Flag for Indonesia Weather past 2 weeks in Makassar, South Sulawesi, Indonesia

Now
81 °F

Passing clouds.


Feels Like: 89 °F
Forecast: 78 / 86 °F
Wind: 1 mph from Northeast

Location: Ujung Pandang / Hasanuddin

Current Time: May 27, 2015 at 11:59:58 PM

Latest Report: May 27, 2015 at 11:00 PM


Visibility: 5 mi

Pressure: 29.89 "Hg

Humidity: 100%

Dew point: 81 °F

Location of MakassarLocation

Historic Weather in Makassar — Graph

°F

Makassar temperature yesterday

Maximum temperature yesterday: 93 °F (at 12:30 PM)
Minimum temperature yesterday: 73 °F (at 4:30 AM)
Average temperature yesterday: 83 °F

Past Weeks' High & Low Weather Summary

 TemperatureHumidityPressure
High93 °F (May 14, 12:30 PM)100% (May 12, 10:00 PM)29.95 "Hg (May 12, 10:00 PM)
Low72 °F (May 15, 6:00 AM)47% (May 22, 12:30 PM)29.77 "Hg (May 13, 2:00 PM)
Average83 °F82%29.86 "Hg
* Reported May 12 10:00 PM — May 27 10:30 PM, Makassar, Weather by CustomWeather, © 2015

Note: Actual official high and low records may vary slightly from our data, if they occured in-between our weather recording intervals... More about our weather records

Advertising

Makassar weather history for previous 24 hours

 ConditionsComfort  
Time TempWeatherWind HumidityBarometerVisibility
10:30 PM
Wed, May 27
79 °FPassing clouds.2 mph100%29.89 "Hg5 mi
10:00 PM81 °FPassing clouds.3 mph100%29.89 "Hg5 mi
9:30 PM79 °FPassing clouds.2 mph100%29.86 "Hg5 mi
9:00 PM81 °FPassing clouds.2 mph100%29.86 "Hg5 mi
8:30 PM81 °FPassing clouds.2 mph100%29.86 "Hg5 mi
8:00 PM81 °FPassing clouds.3 mph100%29.86 "Hg5 mi
7:30 PM82 °FPassing clouds.3 mph94%29.83 "Hg5 mi
7:00 PM82 °FPassing clouds.5 mph94%29.83 "Hg5 mi
6:30 PM86 °FPassing clouds.6 mph79%29.83 "Hg5 mi
6:00 PM86 °FPassing clouds.7 mph79%29.80 "HgN/A
5:30 PM88 °FPassing clouds.6 mph70%29.80 "HgN/A
5:00 PM88 °FPassing clouds.8 mph66%29.80 "HgN/A
4:30 PM90 °FPassing clouds.9 mph63%29.80 "HgN/A
4:00 PM90 °FPassing clouds.10 mph59%29.77 "HgN/A
3:30 PM90 °FPassing clouds.12 mph67%29.77 "HgN/A
3:00 PM91 °FPassing clouds.8 mph59%29.77 "HgN/A
2:30 PM90 °FPassing clouds.9 mph63%29.77 "HgN/A
2:00 PM90 °FScattered clouds.9 mph67%29.80 "HgN/A
1:30 PM90 °FScattered clouds.9 mph67%29.80 "HgN/A
1:00 PM91 °FScattered clouds.7 mph63%29.80 "HgN/A
12:30 PM90 °FScattered clouds.8 mph67%29.83 "HgN/A
12:00 PM90 °FScattered clouds.9 mph71%29.83 "HgN/A
11:30 AM91 °FPassing clouds.5 mph52%29.86 "HgN/A
11:00 AM90 °FPassing clouds.2 mph55%29.86 "HgN/A
10:30 AM88 °FPassing clouds.3 mph59%29.89 "HgN/A
10:00 AM88 °FPassing clouds.3 mph62%29.89 "HgN/A
9:30 AM86 °FPassing clouds.5 mph62%29.89 "HgN/A
9:00 AM84 °FPassing clouds.5 mph79%29.92 "HgN/A
8:30 AM82 °FPassing clouds.2 mph89%29.92 "HgN/A
8:00 AM79 °FPassing clouds.3 mph100%29.92 "HgN/A
7:30 AM77 °FPassing clouds.2 mph100%29.89 "Hg6 mi
7:00 AM73 °FPassing clouds.3 mph100%29.89 "Hg6 mi
6:30 AM72 °FPassing clouds.2 mph100%29.89 "Hg6 mi
6:00 AM72 °FPassing clouds.3 mph100%29.86 "Hg6 mi
4:30 AM73 °FPassing clouds.1 mph100%29.86 "Hg5 mi
3:00 AM73 °FPassing clouds.3 mph100%29.86 "Hg5 mi
2:30 AM73 °FPassing clouds.2 mph100%29.86 "Hg5 mi
2:00 AM73 °FPassing clouds.3 mph100%29.86 "Hg5 mi
1:30 AM75 °FPassing clouds.3 mph100%29.86 "Hg5 mi
1:00 AM75 °FPassing clouds.2 mph100%29.89 "Hg5 mi
12:30 AM77 °FPassing clouds.No wind100%29.89 "Hg5 mi
12:00 AM77 °FPassing clouds.3 mph100%29.89 "Hg5 mi
11:30 PM
Tue, May 26
77 °FPassing clouds.1 mph100%29.89 "Hg5 mi
11:00 PM77 °FPassing clouds.3 mph100%29.89 "Hg5 mi
Weather by CustomWeather, © 2015

See weather overviewHow to use our weather pages